Simultaneous Nadir Overpasses (SNOs) Predictions

Prediction of SNOs between GOES-17 and TERRA Satellite Orbit:

Table of predicted SNOs for the next 14.0 days since TLE Epoch: 8/8/2020
Index Date Time (GOES-17) GOES-17 Lat,Lon TERRA Lat,Lon Distance(km) Time Diff (sec)
1 08/09/2020 07:43:02 -0.00,-137.16 -0.13,-137.81 73.95 80
2 08/11/2020 07:28:10 -0.00,-137.15 0.46,-134.85 261.37 80
3 08/11/2020 19:49:26 0.00,-137.16 0.60,-140.01 324.26 80
4 08/13/2020 19:39:54 -0.00,-137.14 -0.00,-137.05 10.25 80
5 08/15/2020 19:27:43 -0.01,-137.11 -0.67,-134.10 343.32 80
6 08/16/2020 07:46:27 0.01,-137.09 -0.45,-139.28 248.95 80
7 08/18/2020 07:36:55 0.01,-137.06 0.16,-136.32 83.57 80
8 08/20/2020 07:24:43 0.00,-137.02 0.78,-133.36 415.66 80
9 08/20/2020 19:43:19 -0.00,-137.02 0.29,-138.52 170.85 80
